Weather History for Redding, CA

Change the Weather History Date:

Monday, March 3, 2014

  Actual Average Record
Temperature  
Mean Temperature 53 °F -  
Max Temperature 55 °F 63 °F 77 °F (2012)
Min Temperature 51 °F 42 °F 28 °F (1989)
Degree Days  
Heating Degree Days 12    
Cooling Degree Days 0    
Growing Degree Days 2 (Base 50)    
Moisture  
Dew Point 50 °F    
Average Humidity 90    
Maximum Humidity 96    
Minimum Humidity 83    
Precipitation  
Precipitation 0.44 in 0.19 in 0.93 in (2010)
Month to date precipitation 1.14 0.59  
Year to date precipitation 9.64 12.06  
Since 1 July precipitation 13.14 25.82  
Sea Level Pressure  
Sea Level Pressure 30.06 in    
Wind  
Wind Speed 15 mph (South)    
Max Wind Speed 26 mph    
Max Gust Speed 35 mph    
Visibility 8 miles    
Events Rain    
T = Trace of Precipitation, MM = Missing Value Source: NWS Daily Summary

Daily Weather History Graph

Daily Weather History Graph

Search for Another Location

Airport:

Trip Planner

Search our weather history database for the weather conditions in past years. The results will help you decide how hot, cold, wet, or windy it might be!

Date:

Astronomy

Mar. 03, 2014 Rise Set
Actual Time 6:39 AM PST 6:03 PM PST
Civil Twilight 6:12 AM PST 6:30 PM PST
Nautical Twilight 5:40 AM PST 7:01 PM PST
Astronomical Twilight 5:09 AM PST 7:33 PM PST
Moon 7:50 AM PST (3/3) 9:12 PM PST (3/3)
Length of Visible Light 12h 17m
Length of Day
11h 23m
Waxing Crescent, 8% of the Moon is Illuminated
Mar 3
Waxing Crescent
Mar 8
First Quarter
Mar 16
Full
Mar 23
Last Quarter
Mar 30
New

Hourly Weather History & Observations

Time (PST) Temp. Dew Point Humidity Pressure Visibility Wind Dir Wind Speed Gust Speed Precip Events Conditions
12:53 AM 54.0 °F 51.1 °F 90% 30.06 in 10.0 mi South 16.1 mph 24.2 mph N/A   Mostly Cloudy
1:05 AM 54.0 °F 51.1 °F 90% 30.06 in 10.0 mi South 20.7 mph 31.1 mph N/A   Scattered Clouds
1:53 AM 54.0 °F 48.9 °F 83% 30.05 in 10.0 mi South 23.0 mph 31.1 mph N/A   Partly Cloudy
2:53 AM 54.0 °F 48.9 °F 83% 30.03 in 10.0 mi South 20.7 mph - N/A   Mostly Cloudy
3:53 AM 54.0 °F 48.0 °F 80% 30.01 in 10.0 mi South 13.8 mph - N/A   Overcast
4:37 AM 53.1 °F 48.9 °F 86% 30.01 in 10.0 mi South 20.7 mph 27.6 mph 0.00 in Rain Light Rain
4:53 AM 53.1 °F 48.9 °F 86% 30.01 in 10.0 mi South 21.9 mph 27.6 mph 0.00 in   Overcast
5:53 AM 52.0 °F 50.0 °F 93% 30.01 in 10.0 mi South 20.7 mph 29.9 mph 0.03 in Rain Light Rain
6:53 AM 52.0 °F 48.9 °F 89% 30.01 in 10.0 mi South 20.7 mph 26.5 mph 0.01 in Rain Light Rain
7:53 AM 51.1 °F 48.9 °F 92% 30.06 in 3.0 mi South 16.1 mph 24.2 mph 0.15 in Rain Rain
8:53 AM 52.0 °F 50.0 °F 93% 30.06 in 10.0 mi South 19.6 mph 28.8 mph 0.07 in Rain Light Rain
9:53 AM 52.0 °F 50.0 °F 93% 30.07 in 10.0 mi South 16.1 mph 26.5 mph 0.03 in Rain Light Rain
10:53 AM 53.1 °F 50.0 °F 89% 30.07 in 10.0 mi South 20.7 mph 25.3 mph 0.02 in   Overcast
11:53 AM 53.1 °F 51.1 °F 93% 30.07 in 5.0 mi South 13.8 mph - 0.02 in Rain Light Rain
12:53 PM 53.1 °F 51.1 °F 93% 30.07 in 7.0 mi South 9.2 mph - 0.01 in Rain Light Rain
1:53 PM 53.1 °F 51.1 °F 93% 30.06 in 9.0 mi South 9.2 mph - 0.03 in Rain Light Rain
2:53 PM 53.1 °F 51.1 °F 93% 30.05 in 10.0 mi South 10.4 mph - 0.00 in Rain Light Rain
3:53 PM 52.0 °F 50.0 °F 93% 30.05 in 7.0 mi South 15.0 mph - 0.06 in Rain Light Rain
4:08 PM 52.0 °F 50.0 °F 93% 30.05 in 6.0 mi South 12.7 mph - 0.03 in Rain Rain
4:53 PM 51.1 °F 50.0 °F 96% 30.05 in 7.0 mi South 13.8 mph - 0.09 in Rain Light Rain
5:53 PM 50.0 °F 50.0 °F 100% 30.06 in 5.0 mi South 10.4 mph - 0.13 in Rain Rain
6:00 PM 50.0 °F 50.0 °F 100% 30.06 in 6.0 mi South 11.5 mph - 0.01 in Rain Rain
6:53 PM 50.0 °F 48.9 °F 96% 30.06 in 6.0 mi South 13.8 mph - 0.11 in Rain Light Rain
7:29 PM 50.0 °F 50.0 °F 100% 30.07 in 6.0 mi South 10.4 mph - 0.07 in Rain Rain
7:53 PM 50.0 °F 50.0 °F 100% 30.08 in 5.0 mi South 10.4 mph - 0.12 in Rain Rain
8:02 PM 50.0 °F 50.0 °F 100% 30.08 in 5.0 mi South 5.8 mph - 0.02 in Rain Rain
8:27 PM 50.0 °F 50.0 °F 100% 30.09 in 5.0 mi South 3.5 mph - 0.09 in Rain Rain
8:53 PM 50.0 °F 50.0 °F 100% 30.09 in 5.0 mi Calm Calm - 0.17 in Rain Rain
9:53 PM 50.0 °F 50.0 °F 100% 30.11 in 4.0 mi WNW 3.5 mph - 0.14 in Rain Rain
10:24 PM 50.0 °F 50.0 °F 100% 30.09 in 10.0 mi SE 6.9 mph - 0.06 in Rain Light Rain
10:50 PM 50.0 °F 50.0 °F 100% 30.11 in 10.0 mi Calm Calm - 0.07 in Rain Light Rain
10:53 PM 50.0 °F 50.0 °F 100% 30.11 in 10.0 mi Calm Calm - 0.07 in Rain Light Rain
11:31 PM 50.0 °F 50.0 °F 100% 30.11 in 10.0 mi Calm Calm - 0.00 in   Overcast
11:53 PM 50.0 °F 50.0 °F 100% 30.12 in 10.0 mi Calm Calm - 0.00 in   Overcast